Regional Weather Roundup
Issued by NWS

Home | Current Version | Previous Version | Graphics & Text | Print | Product List | Glossary On
Versions: 1 2 3 4 5 6 7 8 9 10 11 12 13 14 15 16 17 18 19 20 21 22 23 24 25 26 27 28 29 30 31 32 33 34 35 36 37 38 39 40 41 42 43 44 45 46 47 48 49 50
000
ASUS43 KLOT 011806
RWRIL

ILLINOIS REGIONAL WEATHER ROUNDUP
NATIONAL WEATHER SERVICE CHICAGO/ROMEOVILLE IL
100 PM CDT FRI AUG 01 2014

NOTE: "FAIR" INDICATES FEW OR NO CLOUDS BELOW 12,000 FEET WITH NO
SIGNIFICANT WEATHER AND/OR OBSTRUCTIONS TO VISIBILITY.

* THESE STATIONS ARE NOT UNDER NWS QUALITY CONTROL. THEY ALSO MAY NOT
  REPORT WEATHER SUCH AS PRECIPITATION OR FOG.

ILZ001-002-007-009-015-016-024-011900-
NORTHWEST ILLINOIS

CITY           SKY/WX    TMP DP  RH WIND       PRES   REMARKS
MOLINE         PTSUNNY   81  62  52 SW7       30.08F HX  82
6HR MIN TEMP:  64; 6HR MAX TEMP:  82;

STERLING*      SUNNY     82  61  47 NW7       30.10S HX  83
SAVANNA*       SUNNY     82  56  40 NW5       30.08F HX  82
$$

ILZ003-004-008-010-011-017-018-011900-
NORTH CENTRAL ILLINOIS

CITY           SKY/WX    TMP DP  RH WIND       PRES   REMARKS
ROCKFORD       MOSUNNY   82  59  45 VRB6      30.10F HX  82
6HR MIN TEMP:  61; 6HR MAX TEMP:  82;

FREEPORT*      LGT RAIN  78  63  59 SW5       30.11F HX  80
ROCHELLE*      SUNNY     78  58  49 W3        30.10S
DE KALB*       CLOUDY    75  61  61 NW5       30.10F
PERU*          MOSUNNY   76  59  53 W3        30.10F
$$

ILZ005-006-012>014-019>023-011900-
NORTHEAST ILLINOIS

CITY           SKY/WX    TMP DP  RH WIND       PRES   REMARKS
CHICAGO-OHARE  PTSUNNY   82  55  39 W8        30.07F HX  81
6HR MIN TEMP:  66; 6HR MAX TEMP:  83;

CHICAGO-MIDWAY LGT RAIN  72  61  68 SW12      30.08F
6HR MIN TEMP:  69; 6HR MAX TEMP:  83; 6HR PCP:  0.16;

AURORA         MOSUNNY   80  61  52 SW6       30.10F HX  81
6HR MIN TEMP:  63; 6HR MAX TEMP:  81;

LANSING*       MOSUNNY   82  58  43 SW7       30.08F HX  82
JOLIET*        MOSUNNY   79  63  57 W3        30.10F HX  80
WAUKEGAN       SUNNY     83  56  39 VRB6      30.07F HX  82
6HR MIN TEMP:  64; 6HR MAX TEMP:  83;

DUPAGE AIRPORT SUNNY     82  59  45 SW7       30.08F HX  82
6HR MIN TEMP:  62; 6HR MAX TEMP:  82;

KANKAKEE*      MOSUNNY   81  65  57 S5        30.10F HX  83
WHEELING       MOSUNNY   75  62  64 E5        30.09F
6HR MIN TEMP:  65; 6HR MAX TEMP:  83; 6HR PCP:  0.15;

MORRIS*        MOSUNNY   79  64  59 W5        30.09F HX  81
ROMEOVILLE*    MOSUNNY   78  64  62 NW5       30.09F
NORTHERLY ISL    N/A     76  57  51 N3          N/A
$$

LMZ740>746-011900-
SOUTHERN LAKE MICHIGAN

STATION/POSITION SKY/WX   TEMP    WIND        PRES    VSBY  WAVE
                          AIR SEA DIR/SP/G                  HT/PER
                          (F)     (DEG/KT/KT) (MB)    (MI)  (FT/S)
SOUTHERN BUOY              67 65  270/  2/  2 1018.9F         0
WAUKEGAN HARBOR            74     100/  9/  9   N/A
HARRISON CRIB              73     120/ 10/ 12   N/A
BURNHAM HARBOR             76      40/  2/  9   N/A
CALUMET HARBOR             72     350/ 12/ 20 1018.1R
MICHIGAN CITY              73      10/  4/  4   N/A
MICHIGAN CITY 6N           72 71   80/  2/  4   N/A           0
ST. JOSEPH                 71 69  220/  2/  4   N/A           1
$$

ILZ025>027-034>036-040-047-049-050-058-095>099-011900-
WEST-CENTRAL ILLINOIS

CITY           SKY/WX    TMP DP  RH WIND       PRES   REMARKS
QUINCY         PTSUNNY   78  61  55 CALM      30.09F HX  80
GALESBURG*     MOSUNNY   85  64  48 SW3       30.10S HX  87
MACOMB*        MOSUNNY   77  61  58 E3        30.11F
JACKSONVILLE*  CLOUDY    79  67  66 NW3       30.09F HX  81
PITTSFIELD*    CLOUDY    78  68  72 S5        30.09F
$$

ILZ028>032-037-038-041>044-048-051>054-059>061-011900-
CENTRAL ILLINOIS

CITY           SKY/WX    TMP DP  RH WIND       PRES   REMARKS
PONTIAC        MOSUNNY   81  63  54 CALM      30.09F HX  82
DECATUR        TSTM      68  59  73 N13       30.10S
PEORIA         PTSUNNY   81  61  50 S5        30.08F HX  82
6HR MIN TEMP:  68; 6HR MAX TEMP:  84;

LACON*         PTSUNNY   80  62  55 CALM      30.08S HX  81
LINCOLN*       HVY RAIN  73  62  68 SE9       30.05F
SPRINGFIELD    PTSUNNY   82  63  52 VRB3      30.07F HX  83
6HR MIN TEMP:  62; 6HR MAX TEMP:  85;

TAYLORVILLE    PTSUNNY   79  64  61 SW7       30.08F THUNDER HX  81
$$

ILZ033-039-045-046-055>057-062-063-011900-
EAST-CENTRAL ILLINOIS

CITY           SKY/WX    TMP DP  RH WIND       PRES   REMARKS
CHAMPAIGN      MOSUNNY   79  62  56 E7        30.10F HX  80
DANVILLE*      SUNNY     78  64  61 S7        30.07F HX  80
RANTOUL*       MOSUNNY   79  59  50 S13       30.11S HX  80
MATTOON        CLOUDY    79  61  53 VRB3      30.09S HX  80
PARIS*         CLOUDY    75  65  70 CALM      30.11F
$$

ILZ079-100>102-011900-
SOUTHWEST ILLINOIS

CITY           SKY/WX    TMP DP  RH WIND       PRES   REMARKS
ALTON          MOSUNNY   82  61  47 VRB5      30.08F HX  83
BELLEVILLE     SUNNY     84  64  51 E8        30.06F HX  86
CAHOKIA*       SUNNY     84  61  45 VRB7      30.07F HX  84
SPARTA*        MOSUNNY   81  64  57 CALM      30.09F HX  82
$$

ILZ064>066-069>071-074>076-080>082-084>086-088>090-092>094-011900-
SOUTH-CENTRAL ILLINOIS

CITY           SKY/WX    TMP DP  RH WIND       PRES   REMARKS
CARBONDALE     PTSUNNY   80  63  55 CALM      30.08F HX  81
6HR MIN TEMP:  61; 6HR MAX TEMP:  82;

CAIRO*         PTSUNNY   84  64  50 CALM      30.08F HX  86
EFFINGHAM*     PTSUNNY   82  55  38 CALM      30.09F HX  82
MARION         MOSUNNY   84  61  45 SW8       30.10S HX  84
MT. VERNON     PTSUNNY   84  64  51 SE5       30.10S HX  86
CENTRALIA*     SUNNY     92  60  33 SW3       30.08F HX  91
SALEM*         MOSUNNY   85  63  47 SE5       30.09F HX  86
METROPOLIS*    CLOUDY    83  60  45 CALM      30.07F HX  83
$$

ILZ067-068-072-073-078-083-087-091-011900-
SOUTHEAST ILLINOIS

CITY           SKY/WX    TMP DP  RH WIND       PRES   REMARKS
LAWRENCEVILLE  CLOUDY    83  65  54 N5        30.09F HX  85
FLORA*         SUNNY     81  61  49 CALM      30.09F HX  82
FAIRFIELD*     MOSUNNY   81  68  65 CALM      30.09F HX  83
HARRISBURG*    SUNNY     81  66  59 CALM      30.10F HX  83
ROBINSON*      MOSUNNY   85  62  44 CALM      30.10F HX  85
CARMI*         MOSUNNY   82  66  57 N3        30.09S HX  85
$$

ABBREVIATIONS USED IN REMARKS
   TC - TEMPERATURE IN CELSIUS
  WCI - WIND CHILL INDEX
   HX - HEAT INDEX
  VSB - VISIBILITY
$$



USA.gov is the U.S. government's official web portal to all federal, state and local government web resources and services.